[[{"header":{"parameterUnit":"m.s-1","parameterCategory":2,"la1":30.2991,"la2":30.254,"lo1":-89.0895,"lo2":-89.0444,"dy":0.0017,"dx":0.0017,"nx":28,"ny":28,"refTime":"2025-05-27T21:00:00:Z","depth":"0","parameterNumber":2,"parameterNumberName":"U-component_of_CURRENTS"},"data":[0,0,0,0,0,0,0,0,0,0,0,0,0,0,0,0,0,0,0,0,0,0,0,0,0,0,0,0,0,0,0,0,0,0,0,0,0,0,0,0,0,0,0,0,0,0,0,0,0,0,0,0,0,0,0,0,0,0,0.152,0.1521,0,0.1609,0.1609,0.161,0.159,0.1589,0.1588,0.1587,0.1563,0.1564,0.1564,0,0,0,0,0,0,0,0,0,0,0,0,0,0.133,0.1334,0.152,0.1521,0.1523,0.1609,0.1609,0.161,0.1591,0.1589,0.1588,0.1586,0.1563,0.1564,0.1564,0,0,0,0,0,0,0,0,0,0,0,0,0,0.1411,0.1335,0.1519,0.1527,0.1529,0.1609,0.1609,0.161,0.1591,0.1589,0.1587,0.1586,0.1563,0.1564,0.1565,0.1607,0,0,0.1567,0.1567,0,0,0,0,0,0,0,0,0.1406,0.1417,0.1524,0.1527,0.1529,0.1591,0.1534,0.1605,0.1591,0.1562,0.1587,0.1585,0.1567,0.1567,0.1583,0.1605,0.1604,0.1567,0.1568,0.1568,0.1568,0,0,0,0,0,0,0,0.1401,0.1413,0.155,0.1526,0.1529,0.1525,0.1534,0.1548,0.1568,0.1565,0.1565,0.1583,0.1566,0.1582,0.1582,0.1604,0.1567,0.1568,0.1568,0.1569,0.1628,0.1629,0,0,0,0,0,0,0.1402,0.1409,0.1547,0.1553,0.1467,0.1531,0.154,0.1569,0.157,0.1571,0.1584,0.1582,0.1582,0.1581,0.1581,0.159,0.1568,0.1569,0.1569,0.1627,0.1629,0.163,0,0,0,0,0,0,0.1398,0.1414,0.1544,0.1485,0.1502,0.1536,0.1568,0.1572,0.1586,0.1587,0.1584,0.1595,0.158,0.158,0.1595,0.159,0.1569,0.157,0.1626,0.1628,0.1629,0.1634,0,0,0,0,0,0,0.1392,0.1412,0.1435,0.1486,0.1506,0.16,0.1571,0.1575,0.1603,0.16,0.1596,0.1592,0.1579,0.1594,0.1596,0.1591,0.157,0.1624,0.1627,0.1629,0.1632,0.1636,0.1638,0,0,0,0,0,0.1385,0.1441,0.1435,0.1452,0.1535,0.1602,0.1612,0.1625,0.1605,0.1626,0.1616,0.1592,0.1608,0.1596,0.1598,0.1593,0.1623,0.1626,0.1628,0.1631,0.1635,0.1638,0,0,0,0,0,0,0.1382,0.1446,0.1441,0.1514,0.1552,0.16,0.1634,0.1633,0.1645,0.1635,0.1615,0.1613,0.1624,0.162,0.1607,0.1619,0.1609,0.1612,0.161,0.1614,0.1617,0.1662,0.1571,0,0,0,0,0,0.139,0.144,0.1489,0.1547,0.1568,0.1595,0.1623,0.163,0.1652,0.1655,0.1649,0.1642,0.164,0.1635,0.1644,0.1656,0.1777,0.1653,0.1656,0.1658,0.1699,0.1926,0.1955,0.1638,0.1638,0.1638,0,0,0.1405,0.1448,0.1476,0.1548,0.1576,0.1609,0.1606,0.1659,0.1664,0.1651,0.1657,0.1661,0.1651,0.1659,0.1662,0.1649,0.1807,0.1661,0.1663,0.1704,0.1932,0.1964,0.1992,0.164,0.1639,0.1639,0,0,0.1465,0.1497,0.1552,0.1579,0.163,0.164,0.1653,0.1696,0.1691,0.1713,0.1692,0.1708,0.1704,0.17,0.1693,0.1727,0.1824,0.171,0.1751,0.1969,0.1999,0.2027,0.2205,0.2249,0.1701,0.1701,0.1701,0,0.1474,0.1544,0.1578,0.1623,0.164,0.1648,0.1682,0.1688,0.1722,0.1733,0.1715,0.176,0.1729,0.1756,0.1747,0.1733,0.1883,0.1728,0.1979,0.2009,0.2038,0.2214,0.2263,0.1701,0.1701,0.1701,0.1701,0,0.1566,0.1603,0.164,0.168,0.1701,0.1743,0.1743,0.1756,0.1745,0.1761,0.1806,0.1806,0.1842,0.181,0.1777,0.1924,0.1973,0.1969,0.1977,0.2071,0.2249,0.2299,0.1702,0.1702,0.1702,0.1702,0,0,0.1628,0.1688,0.1696,0.1698,0.1727,0.1752,0.1758,0.1784,0.1814,0.1835,0.1915,0.1879,0.1918,0.1918,0.1897,0.2045,0.2322,0.2089,0.2101,0.2279,0.2832,0.279,0.2841,0.2397,0.2405,0.2413,0.287,0,0.1678,0.1752,0.1766,0.1793,0.1817,0.1804,0.181,0.1827,0.1857,0.194,0.1961,0.2028,0.1943,0.1985,0.212,0.2292,0.2461,0.2199,0.2704,0.2719,0.2684,0.29,0.2836,0.3235,0.292,0.2929,0.2935,0,0.1761,0.1788,0.1834,0.1831,0.1841,0.1848,0.1873,0.1883,0.1975,0.2017,0.2111,0.2167,0.2322,0.2273,0.2653,0.2511,0.2682,0.2812,0.2834,0.284,0.2774,0.3094,0.3339,0.3258,0.3013,0.3007,0.3001,0,0.179,0.1827,0.1853,0.1856,0.1867,0.1868,0.1862,0.1916,0.1955,0.2106,0.2219,0.2389,0.2535,0.2786,0.2971,0.2888,0.3447,0.3365,0.3489,0.3486,0.3552,0.354,0.3796,0.3704,0.3703,0.3702,0.3701,0,0.1846,0.1861,0.1863,0.1878,0.1886,0.1883,0.1925,0.1951,0.2067,0.2182,0.2274,0.245,0.2698,0.2985,0.3136,0.3484,0.3594,0.3583,0.3643,0.3542,0.3524,0.3546,0.3489,0.3719,0.3715,0.3712,0.3709,0,0.1891,0.19,0.1917,0.1914,0.1908,0.1911,0.1937,0.1995,0.2097,0.2285,0.2358,0.2617,0.2989,0.3209,0.3653,0.3713,0.3957,0.4094,0.3923,0.3952,0.3928,0.3871,0.4025,0.3971,0.4363,0.4365,0.4367,0,0.1937,0.1951,0.1938,0.1936,0.1933,0.1934,0.1953,0.2005,0.2097,0.2384,0.2516,0.289,0.3141,0.3722,0.3951,0.4287,0.4111,0.4375,0.4169,0.4,0.3985,0.3693,0.3613,0.4272,0.4274,0.4274,0.4275,0,0.1998,0.1983,0.1993,0.2002,0.2005,0.2013,0.2058,0.2128,0.2255,0.2431,0.2742,0.2966,0.3474,0.3802,0.4171,0.4335,0.4184,0.4398,0.4334,0.4054,0.366,0.3608,0.3847,0.4282,0.4282,0.4281,0.4281,0.428,0.2042,0.2067,0.2086,0.2098,0.2092,0.2138,0.2161,0.2245,0.2401,0.2658,0.2859,0.3165,0.3593,0.4109,0.4229,0.4401,0.4286,0.4362,0.4354,0.4103,0.3904,0.4115,0.4511,0.4511,0.4512,0.4512,0.4512,0,0.2147,0.2182,0.2186,0.2215,0.2233,0.2212,0.2279,0.232,0.2492,0.2717,0.2946,0.3375,0.3734,0.4034,0.4388,0.4367,0.4141,0.431,0.3928,0.3893,0.4252,0.4093,0.4281,0.4281,0.4281,0.4281,0.4281,0.4281,0.2222,0.2294,0.2315,0.2386,0.2376,0.2415,0.2452,0.2492,0.2615,0.286,0.3065,0.3247,0.3655,0.4151,0.4314,0.4271,0.4003,0.3874,0.3843,0.4124,0.4125,0.4125,0.3961,0.4119,0.4119,0.3318,0.3313,0.3309]},{"header":{"parameterUnit":"m.s-1","parameterCategory":2,"la1":30.2991,"la2":30.254,"lo1":-89.0895,"lo2":-89.0444,"dy":0.0017,"dx":0.0017,"nx":28,"ny":28,"refTime":"2025-05-27T21:00:00:Z","depth":"0","parameterNumber":3,"parameterNumberName":"V-component_of_CURRENTS"},"data":[0,0,0,0,0,0,0,0,0,0,0,0,0,0,0,0,0,0,0,0,0,0,0,0,0,0,0,0,0,0,0,0,0,0,0,0,0,0,0,0,0,0,0,0,0,0,0,0,0,0,0,0,0,0,0,0,0,0,-0.0603,-0.0604,0,-0.0628,-0.0628,-0.0628,-0.0616,-0.0616,-0.0615,-0.0615,-0.0595,-0.0595,-0.0595,0,0,0,0,0,0,0,0,0,0,0,0,0,-0.0492,-0.0494,-0.0603,-0.0604,-0.0604,-0.0628,-0.0628,-0.0628,-0.0616,-0.0616,-0.0615,-0.0615,-0.0595,-0.0595,-0.0595,0,0,0,0,0,0,0,0,0,0,0,0,0,-0.0527,-0.0495,-0.0603,-0.0604,-0.0605,-0.0628,-0.0628,-0.0628,-0.0616,-0.0616,-0.0615,-0.0615,-0.0595,-0.0595,-0.0595,-0.06,0,0,-0.0593,-0.0593,0,0,0,0,0,0,0,0,-0.0525,-0.0531,-0.0603,-0.0604,-0.0605,-0.0622,-0.0582,-0.0618,-0.0616,-0.0607,-0.0615,-0.0615,-0.0603,-0.0602,-0.0602,-0.0599,-0.0599,-0.0593,-0.0593,-0.0593,-0.0593,0,0,0,0,0,0,0,-0.0523,-0.053,-0.0609,-0.0604,-0.0605,-0.0586,-0.059,-0.0588,-0.0603,-0.0608,-0.0608,-0.0618,-0.0602,-0.0603,-0.0602,-0.0598,-0.0593,-0.0593,-0.0593,-0.0593,-0.0577,-0.0577,0,0,0,0,0,0,-0.0532,-0.0528,-0.0608,-0.061,-0.0568,-0.0589,-0.0593,-0.0614,-0.0604,-0.0604,-0.0618,-0.0617,-0.0604,-0.0602,-0.0601,-0.0607,-0.0593,-0.0593,-0.0592,-0.0578,-0.0577,-0.0577,0,0,0,0,0,0,-0.053,-0.0539,-0.0607,-0.0571,-0.0579,-0.0592,-0.0614,-0.0614,-0.0615,-0.0613,-0.0611,-0.0619,-0.0603,-0.0602,-0.0599,-0.0606,-0.0592,-0.0592,-0.0578,-0.0578,-0.0577,-0.0618,0,0,0,0,0,0,-0.0526,-0.0538,-0.0551,-0.0573,-0.0582,-0.0623,-0.0615,-0.0615,-0.0624,-0.0622,-0.0613,-0.0611,-0.0603,-0.06,-0.0599,-0.0605,-0.0592,-0.0578,-0.0578,-0.0577,-0.0617,-0.0619,-0.0621,0,0,0,0,0,-0.0522,-0.0547,-0.0551,-0.0561,-0.0601,-0.0624,-0.0627,-0.063,-0.0624,-0.0628,-0.0619,-0.0611,-0.0597,-0.06,-0.0598,-0.0605,-0.0578,-0.0578,-0.0577,-0.0616,-0.0619,-0.0621,0,0,0,0,0,0,-0.0501,-0.0549,-0.0554,-0.059,-0.0606,-0.0624,-0.0632,-0.0632,-0.0629,-0.0626,-0.0615,-0.0613,-0.0611,-0.06,-0.0603,-0.0596,-0.0584,-0.0583,-0.0613,-0.0616,-0.0618,-0.0549,-0.0591,0,0,0,0,0,-0.0505,-0.0538,-0.0568,-0.0595,-0.0606,-0.0617,-0.0626,-0.0629,-0.0634,-0.0632,-0.0626,-0.0615,-0.0609,-0.0606,-0.0598,-0.06,-0.0511,-0.0599,-0.0601,-0.0603,-0.0544,-0.0394,-0.0376,-0.0576,-0.0576,-0.0576,0,0,-0.0504,-0.0534,-0.0552,-0.0592,-0.0605,-0.0628,-0.062,-0.0639,-0.0645,-0.0631,-0.0633,-0.0624,-0.061,-0.061,-0.0608,-0.0603,-0.0516,-0.0603,-0.0605,-0.0543,-0.0392,-0.0371,-0.0353,-0.0576,-0.0576,-0.0576,0,0,-0.0525,-0.0545,-0.0582,-0.0599,-0.0629,-0.0634,-0.064,-0.0658,-0.0651,-0.066,-0.0644,-0.0623,-0.0636,-0.0608,-0.06,-0.0603,-0.053,-0.0622,-0.0579,-0.0437,-0.0418,-0.0399,-0.0323,-0.0297,-0.0625,-0.0625,-0.0625,0,-0.0518,-0.0571,-0.0591,-0.0627,-0.0632,-0.0639,-0.0657,-0.0662,-0.0671,-0.0626,-0.0664,-0.0587,-0.0621,-0.0548,-0.0582,-0.0605,-0.0522,-0.058,-0.0435,-0.0415,-0.0395,-0.032,-0.0291,-0.0627,-0.0626,-0.0626,-0.0626,0,-0.0577,-0.0604,-0.0624,-0.0669,-0.0672,-0.0691,-0.0696,-0.0677,-0.067,-0.0646,-0.0568,-0.0577,-0.0501,-0.055,-0.059,-0.0473,-0.0463,-0.0455,-0.0423,-0.0376,-0.0303,-0.0272,-0.0629,-0.0629,-0.0628,-0.0628,0,0,-0.0592,-0.0652,-0.0658,-0.0646,-0.0689,-0.0676,-0.0677,-0.0632,-0.0531,-0.0561,-0.042,-0.0479,-0.0419,-0.0403,-0.0416,-0.0343,-0.0228,-0.0357,-0.0349,-0.0271,0.0068,0.0044,0.0075,-0.018,-0.0173,-0.0168,0.0041,0,-0.0624,-0.0676,-0.0699,-0.0697,-0.0704,-0.0677,-0.0639,-0.0586,-0.0517,-0.0382,-0.0357,-0.0247,-0.0381,-0.0309,-0.0266,-0.0182,-0.0135,-0.0286,0.0007,0.0015,-0.0001,0.0115,0.0097,0.0283,0.0072,0.0077,0.0081,0,-0.068,-0.0692,-0.0713,-0.064,-0.0631,-0.0616,-0.0455,-0.0421,-0.0258,-0.0183,-0.0064,-0.0004,0.0097,-0.0017,0.0154,0.0077,0.006,0.0083,0.0093,0.0131,0.0054,0.0216,0.0348,0.0077,0.013,0.0126,0.0122,0,-0.066,-0.0681,-0.0675,-0.0675,-0.0618,-0.0558,-0.05,-0.0346,-0.0206,-0.001,0.0169,0.0274,0.0422,0.0441,0.0429,0.0331,0.0637,0.0519,0.0473,0.0468,0.0547,0.054,0.048,0.0636,0.0635,0.0635,0.0634,0,-0.0678,-0.0654,-0.0651,-0.0636,-0.0518,-0.0502,-0.0303,-0.0208,0.0019,0.0279,0.03,0.0571,0.0559,0.0709,0.0599,0.0679,0.0783,0.0546,0.0563,0.0519,0.0507,0.035,0.0223,0.0643,0.0641,0.0639,0.0638,0,-0.0634,-0.0671,-0.062,-0.0554,-0.0511,-0.0413,-0.0189,0.0003,0.0179,0.0541,0.063,0.0878,0.1085,0.1042,0.1138,0.0966,0.0878,0.0952,0.0861,0.0862,0.0502,0.0376,0.052,0.0389,0.0956,0.0958,0.0959,0,-0.0609,-0.0597,-0.0532,-0.0451,-0.0409,-0.0261,-0.0105,0.0063,0.0313,0.0768,0.0997,0.1276,0.1539,0.164,0.1412,0.1286,0.1016,0.1108,0.0887,0.0542,0.0414,0.034,0.0209,0.0946,0.0947,0.0948,0.0948,0,-0.0493,-0.0488,-0.0433,-0.0283,-0.0146,0.0042,0.0281,0.0492,0.0788,0.1105,0.1592,0.1827,0.1919,0.1869,0.1631,0.1458,0.0929,0.1115,0.0839,0.0496,0.035,0.0209,0.0678,0.0955,0.0954,0.0954,0.0953,0.0953,-0.035,-0.0283,-0.0197,-0.0023,0.0124,0.0407,0.0621,0.091,0.1309,0.1839,0.1998,0.2392,0.2206,0.1918,0.1592,0.0964,0.0993,0.0732,0.0636,0.0613,0.041,0.0853,0.1084,0.1084,0.1085,0.1085,0.1085,0,-0.0079,-0.0017,0.0106,0.0325,0.0549,0.058,0.096,0.1208,0.1687,0.2104,0.249,0.2696,0.2296,0.1817,0.1033,0.0555,0.0329,0.0308,0.016,0.0063,0.0543,0.0452,0.0461,0.0461,0.0461,0.0461,0.0462,0.0462,0.0086,0.0271,0.0322,0.0724,0.0871,0.1215,0.144,0.1756,0.2083,0.2641,0.2951,0.3176,0.2937,0.1484,0.0413,0.0091,-0.0331,-0.0284,-0.0487,-0.026,-0.0232,-0.0205,-0.0328,-0.0482,-0.0483,-0.0967,-0.0972,-0.0975]}],[{"header":{"parameterUnit":"m.s-1","parameterCategory":2,"la1":30.2991,"la2":30.254,"lo1":-89.0895,"lo2":-89.0444,"dy":0.0017,"dx":0.0017,"nx":28,"ny":28,"refTime":"2025-05-27T21:00:00:Z","depth":"2","parameterNumber":2,"parameterNumberName":"U-component_of_CURRENTS"},"data":[0,0,0,0,0,0,0,0,0,0,0,0,0,0,0,0,0,0,0,0,0,0,0,0,0,0,0,0,0,0,0,0,0,0,0,0,0,0,0,0,0,0,0,0,0,0,0,0,0,0,0,0,0,0,0,0,0,0,0.0564,0.0564,0,0.0599,0.06,0.06,0.063,0.063,0.063,0.063,0.0716,0.0718,0.072,0,0,0,0,0,0,0,0,0,0,0,0,0,0.0625,0.0623,0.0564,0.0564,0.0565,0.0599,0.06,0.06,0.063,0.063,0.063,0.0631,0.0716,0.0718,0.072,0,0,0,0,0,0,0,0,0,0,0,0,0,0.0623,0.0622,0.0564,0.0583,0.0585,0.0599,0.06,0.06,0.063,0.063,0.063,0.0631,0.0715,0.0718,0.0721,0.0732,0,0,0.073,0.0731,0,0,0,0,0,0,0,0,0.0623,0.0621,0.058,0.0582,0.0584,0.061,0.0652,0.0647,0.0629,0.0614,0.063,0.0631,0.0685,0.069,0.0696,0.0736,0.074,0.073,0.0732,0.0734,0.0734,0,0,0,0,0,0,0,0.0623,0.062,0.0579,0.058,0.0583,0.0625,0.0624,0.0652,0.0648,0.0615,0.0617,0.0619,0.0686,0.0693,0.0699,0.0741,0.073,0.0733,0.0735,0.0736,0.0886,0.0888,0,0,0,0,0,0,0.0611,0.0619,0.0578,0.058,0.0604,0.0623,0.0622,0.0602,0.0647,0.0653,0.0619,0.0621,0.0688,0.0695,0.0702,0.0771,0.0734,0.0736,0.0738,0.0884,0.0886,0.0888,0,0,0,0,0,0,0.0612,0.0606,0.0576,0.0602,0.0601,0.062,0.0598,0.0602,0.0637,0.0649,0.0657,0.0653,0.0688,0.0698,0.0756,0.0773,0.0738,0.0741,0.0881,0.0884,0.0887,0.0876,0,0,0,0,0,0,0.0613,0.0605,0.0596,0.06,0.0599,0.0598,0.0598,0.0603,0.0636,0.0639,0.068,0.0687,0.0689,0.0751,0.0759,0.0776,0.0743,0.0878,0.0882,0.0886,0.0873,0.0878,0.0882,0,0,0,0,0,0.0615,0.0595,0.0594,0.059,0.058,0.0598,0.0603,0.062,0.0637,0.0654,0.069,0.0687,0.0782,0.0755,0.0764,0.0782,0.0876,0.0881,0.0886,0.0871,0.0877,0.0882,0,0,0,0,0,0,0.0615,0.0596,0.0596,0.057,0.0591,0.0604,0.0616,0.0638,0.068,0.0689,0.0711,0.0721,0.0779,0.0794,0.0764,0.0843,0.083,0.0837,0.0816,0.0822,0.0826,0.0871,0.0746,0,0,0,0,0,0.0608,0.0588,0.0593,0.0577,0.0586,0.0611,0.0625,0.064,0.0671,0.069,0.0724,0.0764,0.0801,0.0822,0.0857,0.0898,0.0969,0.092,0.0924,0.0928,0.0974,0.1114,0.1136,0.0904,0.0904,0.0904,0,0,0.0598,0.0592,0.0576,0.0577,0.0592,0.0607,0.0621,0.0646,0.0671,0.0694,0.075,0.0785,0.082,0.0863,0.089,0.0878,0.1023,0.0934,0.0936,0.0982,0.1122,0.1144,0.1164,0.0907,0.0907,0.0906,0,0,0.0585,0.057,0.056,0.0578,0.0604,0.0618,0.0634,0.0669,0.0699,0.0752,0.0777,0.0834,0.0885,0.0914,0.0933,0.0992,0.1046,0.1,0.1051,0.1184,0.1204,0.1223,0.1302,0.1328,0.0996,0.0996,0.0996,0,0.0592,0.0563,0.0566,0.0578,0.0598,0.0627,0.0648,0.0674,0.0729,0.0791,0.0773,0.0915,0.0911,0.1002,0.1004,0.0999,0.1085,0.1013,0.119,0.1211,0.1231,0.1307,0.1336,0.0996,0.0996,0.0996,0.0996,0,0.0567,0.0566,0.0569,0.0584,0.061,0.0631,0.0667,0.0721,0.0764,0.0818,0.0939,0.0957,0.1063,0.1041,0.1028,0.1167,0.1183,0.1179,0.1171,0.1253,0.1327,0.1358,0.0996,0.0996,0.0996,0.0996,0,0,0.054,0.0552,0.0558,0.0589,0.062,0.0652,0.0701,0.0788,0.0892,0.0934,0.1079,0.1097,0.1167,0.1198,0.1203,0.128,0.1428,0.1291,0.1298,0.136,0.1722,0.1586,0.1606,0.1476,0.1483,0.1488,0.1701,0,0.0537,0.0558,0.0565,0.0615,0.0637,0.0696,0.0764,0.0855,0.0944,0.1092,0.1149,0.1277,0.1208,0.1281,0.1351,0.1427,0.152,0.1371,0.1644,0.1652,0.1515,0.1641,0.1497,0.1666,0.1731,0.1736,0.174,0,0.0518,0.0539,0.0574,0.0674,0.0698,0.0746,0.0913,0.0986,0.1175,0.1259,0.1401,0.1475,0.1593,0.153,0.1723,0.1647,0.1708,0.1741,0.1751,0.1665,0.1576,0.1607,0.172,0.1792,0.1788,0.1784,0.1781,0,0.0507,0.0563,0.06,0.0621,0.0722,0.0798,0.0888,0.1062,0.1189,0.1406,0.1538,0.1687,0.1808,0.1904,0.1938,0.1882,0.2154,0.2081,0.2022,0.201,0.1963,0.1937,0.2276,0.2276,0.2276,0.2275,0.2274,0,0.0499,0.0538,0.0615,0.0635,0.077,0.0839,0.1031,0.1149,0.1362,0.1532,0.1655,0.1797,0.1926,0.2065,0.2062,0.2134,0.2268,0.2083,0.2086,0.1945,0.1916,0.2087,0.2062,0.2283,0.2281,0.228,0.2278,0,0.0491,0.0511,0.0587,0.0705,0.0762,0.0881,0.1113,0.1267,0.1447,0.1674,0.1754,0.1969,0.2126,0.2216,0.2383,0.2305,0.2363,0.2362,0.2148,0.212,0.2097,0.2069,0.2333,0.233,0.2328,0.2327,0.2325,0,0.049,0.0515,0.0651,0.0748,0.0815,0.0991,0.1128,0.1305,0.1446,0.1734,0.1835,0.2083,0.2182,0.2363,0.2333,0.2366,0.2407,0.2227,0.2064,0.2142,0.2119,0.2094,0.2069,0.1997,0.1993,0.199,0.1987,0,0.0535,0.0584,0.0671,0.0842,0.0983,0.1125,0.1306,0.1398,0.1593,0.174,0.1925,0.2027,0.2202,0.218,0.2228,0.2185,0.2188,0.2153,0.241,0.1956,0.183,0.1803,0.1791,0.1958,0.1961,0.1963,0.1965,0.1966,0.0632,0.0712,0.0842,0.1007,0.1138,0.1245,0.1319,0.1454,0.1597,0.1752,0.1872,0.1943,0.2004,0.1969,0.1943,0.1925,0.2022,0.1928,0.1938,0.1952,0.1827,0.1699,0.1779,0.1781,0.1782,0.1784,0.1785,0,0.0798,0.0885,0.102,0.1174,0.1259,0.1327,0.1434,0.1432,0.1492,0.1626,0.1729,0.1599,0.1631,0.1705,0.1632,0.1599,0.1572,0.1544,0.1535,0.1565,0.1592,0.1447,0.13,0.1298,0.1296,0.1295,0,0,0.0922,0.1057,0.1083,0.1239,0.1333,0.1365,0.1378,0.1351,0.1373,0.1356,0.1377,0.1537,0.1606,0.1419,0.1421,0.137,0.1438,0.1302,0.1695,0.1713,0.1737,0.1822,0.1633,0,0,0,0,0]},{"header":{"parameterUnit":"m.s-1","parameterCategory":2,"la1":30.2991,"la2":30.254,"lo1":-89.0895,"lo2":-89.0444,"dy":0.0017,"dx":0.0017,"nx":28,"ny":28,"refTime":"2025-05-27T21:00:00:Z","depth":"2","parameterNumber":3,"parameterNumberName":"V-component_of_CURRENTS"},"data":[0,0,0,0,0,0,0,0,0,0,0,0,0,0,0,0,0,0,0,0,0,0,0,0,0,0,0,0,0,0,0,0,0,0,0,0,0,0,0,0,0,0,0,0,0,0,0,0,0,0,0,0,0,0,0,0,0,0,-0.0445,-0.0445,0,-0.0466,-0.0466,-0.0467,-0.051,-0.051,-0.0511,-0.0511,-0.0554,-0.0554,-0.0555,0,0,0,0,0,0,0,0,0,0,0,0,0,-0.0442,-0.0442,-0.0445,-0.0445,-0.0445,-0.0466,-0.0466,-0.0467,-0.0509,-0.051,-0.0511,-0.0512,-0.0554,-0.0554,-0.0555,0,0,0,0,0,0,0,0,0,0,0,0,0,-0.0454,-0.0442,-0.0445,-0.0467,-0.0469,-0.0466,-0.0466,-0.0467,-0.0509,-0.051,-0.0511,-0.0512,-0.0553,-0.0554,-0.0555,-0.0543,0,0,-0.0558,-0.0558,0,0,0,0,0,0,0,0,-0.0453,-0.0454,-0.0464,-0.0465,-0.0467,-0.0483,-0.048,-0.0492,-0.0509,-0.0497,-0.0511,-0.0512,-0.053,-0.0533,-0.0538,-0.0545,-0.0546,-0.0558,-0.0558,-0.0559,-0.0559,0,0,0,0,0,0,0,-0.0452,-0.0453,-0.0456,-0.0463,-0.0466,-0.0475,-0.0478,-0.0483,-0.0511,-0.0498,-0.05,-0.0498,-0.0531,-0.0537,-0.054,-0.0547,-0.0558,-0.0558,-0.0559,-0.0559,-0.0575,-0.0575,0,0,0,0,0,0,-0.0443,-0.0452,-0.0456,-0.0457,-0.0459,-0.0474,-0.0477,-0.048,-0.051,-0.0515,-0.0497,-0.05,-0.0535,-0.0539,-0.0541,-0.0577,-0.0559,-0.0559,-0.056,-0.0575,-0.0575,-0.0575,0,0,0,0,0,0,-0.0442,-0.0443,-0.0455,-0.0452,-0.0454,-0.0473,-0.0475,-0.048,-0.0504,-0.0509,-0.0515,-0.0518,-0.0536,-0.054,-0.0556,-0.0577,-0.056,-0.0561,-0.0575,-0.0575,-0.0575,-0.0617,0,0,0,0,0,0,-0.0442,-0.0443,-0.0449,-0.0452,-0.0454,-0.0461,-0.0474,-0.0479,-0.0498,-0.0502,-0.0528,-0.0532,-0.0537,-0.0555,-0.0557,-0.0578,-0.0561,-0.0575,-0.0575,-0.0575,-0.0616,-0.0618,-0.0621,0,0,0,0,0,-0.0442,-0.0439,-0.0449,-0.0449,-0.0459,-0.0461,-0.0463,-0.0481,-0.0498,-0.0507,-0.0524,-0.0532,-0.0555,-0.0555,-0.0558,-0.058,-0.0575,-0.0575,-0.0575,-0.0615,-0.0618,-0.0621,0,0,0,0,0,0,-0.044,-0.0443,-0.0454,-0.0453,-0.0461,-0.0467,-0.0473,-0.0489,-0.051,-0.0518,-0.0532,-0.0537,-0.0559,-0.0555,-0.0555,-0.058,-0.0566,-0.0566,-0.0595,-0.0598,-0.06,-0.0582,-0.0562,0,0,0,0,0,-0.0441,-0.0443,-0.0448,-0.045,-0.0453,-0.0468,-0.0474,-0.0487,-0.0499,-0.0511,-0.053,-0.0543,-0.0555,-0.0566,-0.0571,-0.0586,-0.0567,-0.0598,-0.0601,-0.0603,-0.0587,-0.0562,-0.0561,-0.0574,-0.0574,-0.0574,0,0,-0.0437,-0.0442,-0.0442,-0.045,-0.0458,-0.0466,-0.0476,-0.0485,-0.0503,-0.051,-0.0544,-0.0553,-0.0559,-0.0577,-0.0587,-0.0582,-0.0595,-0.0603,-0.0605,-0.0587,-0.0562,-0.0561,-0.056,-0.0574,-0.0574,-0.0574,0,0,-0.0429,-0.0439,-0.044,-0.0448,-0.0459,-0.0468,-0.0475,-0.0491,-0.0512,-0.0539,-0.0548,-0.0565,-0.059,-0.0596,-0.0603,-0.0616,-0.0607,-0.0623,-0.0627,-0.0604,-0.0603,-0.0601,-0.0604,-0.0602,-0.0627,-0.0627,-0.0627,0,-0.0431,-0.0433,-0.044,-0.0446,-0.0455,-0.0472,-0.0481,-0.05,-0.0524,-0.053,-0.0554,-0.057,-0.0598,-0.0598,-0.0619,-0.0625,-0.061,-0.0623,-0.0608,-0.0606,-0.0603,-0.0606,-0.0603,-0.0629,-0.0629,-0.0629,-0.0629,0,-0.0421,-0.0433,-0.0433,-0.0451,-0.0461,-0.0468,-0.0491,-0.0509,-0.0541,-0.0551,-0.0565,-0.0589,-0.0584,-0.0616,-0.0636,-0.063,-0.0626,-0.0614,-0.0604,-0.0605,-0.0607,-0.0604,-0.0632,-0.0631,-0.0631,-0.063,0,0,-0.0407,-0.0423,-0.043,-0.0435,-0.0467,-0.0466,-0.0498,-0.0513,-0.0497,-0.055,-0.0525,-0.0595,-0.0582,-0.0586,-0.06,-0.061,-0.0624,-0.0615,-0.0613,-0.0622,-0.0584,-0.0654,-0.0658,-0.0604,-0.0603,-0.0603,-0.0603,0,-0.0405,-0.0416,-0.043,-0.0443,-0.0447,-0.0472,-0.0482,-0.0498,-0.0507,-0.0481,-0.0517,-0.0488,-0.0574,-0.0547,-0.0582,-0.0578,-0.0611,-0.0625,-0.0575,-0.0574,-0.064,-0.0654,-0.0593,-0.0593,-0.06,-0.0599,-0.0599,0,-0.0402,-0.0406,-0.0423,-0.0422,-0.0424,-0.0432,-0.0425,-0.0427,-0.0406,-0.0399,-0.0391,-0.0383,-0.0396,-0.0454,-0.0494,-0.0493,-0.0552,-0.0581,-0.058,-0.0621,-0.0637,-0.0586,-0.0587,-0.0593,-0.0593,-0.0594,-0.0594,0,-0.039,-0.0403,-0.0416,-0.0422,-0.0424,-0.0428,-0.0419,-0.0404,-0.0353,-0.0308,-0.0236,-0.0269,-0.0215,-0.0306,-0.0416,-0.0427,-0.0461,-0.0469,-0.06,-0.0606,-0.053,-0.0532,-0.0513,-0.0513,-0.0513,-0.0513,-0.0513,0,-0.0379,-0.0392,-0.0405,-0.0406,-0.0374,-0.0391,-0.0327,-0.0316,-0.0234,-0.0142,-0.0163,-0.0091,-0.0169,-0.0207,-0.0354,-0.0476,-0.0415,-0.06,-0.0606,-0.0549,-0.0552,-0.0522,-0.0523,-0.0514,-0.0514,-0.0513,-0.0513,0,-0.0364,-0.0387,-0.0384,-0.0381,-0.0368,-0.0339,-0.0242,-0.0164,-0.0108,0.0024,0.0061,0.0098,0.0031,-0.0105,-0.0218,-0.0354,-0.0491,-0.0565,-0.0517,-0.052,-0.0665,-0.0668,-0.0667,-0.0669,-0.0671,-0.0673,-0.0674,0,-0.0351,-0.0359,-0.0348,-0.0304,-0.0298,-0.0238,-0.0167,-0.0107,-0.0006,0.0115,0.0197,0.0197,0.0164,-0.0039,-0.0251,-0.0491,-0.0545,-0.0592,-0.0623,-0.0672,-0.0678,-0.0678,-0.0678,-0.0539,-0.054,-0.054,-0.054,0,-0.0314,-0.0332,-0.0315,-0.0226,-0.0161,-0.0055,0.0042,0.0124,0.0208,0.0302,0.0388,0.0367,0.0197,0.0005,-0.0304,-0.0472,-0.055,-0.0606,-0.0618,-0.0536,-0.0559,-0.0563,-0.0566,-0.0541,-0.0541,-0.0541,-0.0541,-0.0541,-0.0284,-0.0254,-0.0223,-0.0139,-0.0031,0.011,0.0191,0.0305,0.0428,0.0576,0.0518,0.0516,0.0279,-0.0084,-0.0341,-0.0567,-0.0596,-0.0665,-0.066,-0.0656,-0.0667,-0.0695,-0.0705,-0.0706,-0.0707,-0.0707,-0.0708,0,-0.0242,-0.0202,-0.0115,-0.0015,0.0119,0.0172,0.0334,0.0429,0.0547,0.0667,0.0723,0.0505,0.0269,-0.0009,-0.0334,-0.0579,-0.0556,-0.0648,-0.0551,-0.055,-0.0549,-0.0551,-0.056,-0.056,-0.056,-0.056,0,0,-0.0208,-0.0146,-0.0111,0.0084,0.019,0.0373,0.0462,0.0608,0.0714,0.0809,0.0827,0.078,0.0368,0.0163,-0.0163,-0.0339,-0.0378,-0.0373,-0.047,-0.0316,-0.0311,-0.0548,-0.055,0,0,0,0,0]}],[{"header":{"parameterUnit":"m.s-1","parameterCategory":2,"la1":30.2991,"la2":30.254,"lo1":-89.0895,"lo2":-89.0444,"dy":0.0017,"dx":0.0017,"nx":28,"ny":28,"refTime":"2025-05-27T21:00:00:Z","depth":"4","parameterNumber":2,"parameterNumberName":"U-component_of_CURRENTS"},"data":[0,0,0,0,0,0,0,0,0,0,0,0,0,0,0,0,0,0,0,0,0,0,0,0,0,0,0,0,0,0,0,0,0,0,0,0,0,0,0,0,0,0,0,0,0,0,0,0,0,0,0,0,0,0,0,0,0,0,0.0172,0.0173,0,0.0187,0.0188,0.0188,0.0202,0.0202,0.0202,0.0202,0.0238,0.0238,0.0239,0,0,0,0,0,0,0,0,0,0,0,0,0,0.0155,0.0155,0.0172,0.0173,0.0173,0.0187,0.0188,0.0188,0.0202,0.0202,0.0202,0.0203,0.0237,0.0238,0.0239,0,0,0,0,0,0,0,0,0,0,0,0,0,0.0166,0.0155,0.0172,0.0182,0.0182,0.0187,0.0188,0.0188,0.0202,0.0202,0.0202,0.0203,0.0237,0.0238,0.0239,0.0242,0,0,0.0243,0.0243,0,0,0,0,0,0,0,0,0.0165,0.0166,0.018,0.0181,0.0182,0.0193,0.0194,0.0207,0.0202,0.0195,0.0202,0.0203,0.0224,0.0227,0.0229,0.0243,0.0245,0.0243,0.0244,0.0244,0.0245,0,0,0,0,0,0,0,0.0164,0.0166,0.0178,0.018,0.0181,0.0185,0.0186,0.0197,0.0208,0.0195,0.0196,0.0198,0.0225,0.0228,0.023,0.0245,0.0243,0.0244,0.0245,0.0245,0.0308,0.0309,0,0,0,0,0,0,0.0162,0.0165,0.0178,0.0179,0.0174,0.0185,0.0187,0.0189,0.0208,0.0211,0.0198,0.0198,0.0225,0.0228,0.0231,0.029,0.0244,0.0245,0.0246,0.0307,0.0309,0.031,0,0,0,0,0,0,0.0162,0.0163,0.0177,0.0172,0.0174,0.0185,0.0188,0.0189,0.0202,0.0209,0.0213,0.021,0.0226,0.0229,0.0255,0.0289,0.0246,0.0247,0.0306,0.0308,0.0309,0.0372,0,0,0,0,0,0,0.0161,0.0163,0.0163,0.0172,0.0174,0.0185,0.0187,0.019,0.0202,0.0204,0.0221,0.0223,0.0226,0.0254,0.0257,0.029,0.0248,0.0305,0.0307,0.0309,0.0369,0.0376,0.0382,0,0,0,0,0,0.016,0.016,0.0163,0.0165,0.0175,0.0185,0.0187,0.0195,0.0203,0.0208,0.0227,0.0224,0.0267,0.0256,0.0259,0.0293,0.0304,0.0306,0.0309,0.0366,0.0374,0.0381,0,0,0,0,0,0,0.0147,0.0161,0.0165,0.0168,0.0178,0.0188,0.0191,0.0201,0.022,0.0225,0.0235,0.0239,0.0273,0.0271,0.0257,0.0315,0.0286,0.0289,0.0329,0.0336,0.0343,0.0356,0.0249,0,0,0,0,0,0.0145,0.015,0.0164,0.0164,0.0171,0.0184,0.019,0.0199,0.0215,0.0224,0.0241,0.026,0.0282,0.0299,0.0309,0.0343,0.0345,0.0366,0.0372,0.0378,0.039,0.0414,0.0424,0.0317,0.0317,0.0317,0,0,0.0135,0.0146,0.0146,0.0162,0.017,0.0187,0.0188,0.0201,0.0225,0.0225,0.0264,0.0279,0.0293,0.0331,0.0347,0.0338,0.041,0.0381,0.0386,0.0395,0.0417,0.0428,0.0437,0.0318,0.0318,0.0318,0,0,0.0126,0.0133,0.014,0.0155,0.0174,0.0187,0.0195,0.0219,0.0239,0.0277,0.0286,0.0324,0.0353,0.0379,0.0394,0.044,0.0437,0.0443,0.0497,0.052,0.0529,0.0538,0.0559,0.0569,0.0454,0.0454,0.0454,0,0.0116,0.0131,0.0142,0.016,0.0176,0.0192,0.0212,0.0234,0.0267,0.0309,0.0296,0.0375,0.038,0.0447,0.0465,0.0458,0.0467,0.0469,0.053,0.0538,0.0545,0.0565,0.0575,0.0458,0.0457,0.0457,0.0456,0,0.012,0.0136,0.0142,0.0175,0.0193,0.0209,0.0245,0.0279,0.0311,0.0355,0.0427,0.0438,0.0491,0.05,0.0499,0.0564,0.0553,0.0529,0.0513,0.056,0.0578,0.0587,0.0462,0.0461,0.046,0.0459,0,0,0.0088,0.0136,0.0139,0.0165,0.0206,0.0223,0.0274,0.0343,0.0408,0.0444,0.0524,0.0567,0.0592,0.0608,0.0611,0.0637,0.0694,0.0613,0.0613,0.0639,0.0752,0.072,0.0727,0.0682,0.0684,0.0685,0.0746,0,0.009,0.0129,0.0155,0.0196,0.0221,0.0265,0.0318,0.0388,0.0456,0.0538,0.0581,0.0645,0.0627,0.0654,0.0682,0.069,0.072,0.068,0.0699,0.07,0.0669,0.0737,0.0691,0.0753,0.0755,0.0756,0.0757,0,0.0089,0.012,0.016,0.0231,0.0248,0.0281,0.0388,0.0446,0.0571,0.0625,0.0707,0.0735,0.0796,0.075,0.0807,0.0784,0.0779,0.0776,0.0778,0.0734,0.0685,0.0694,0.0773,0.0772,0.0771,0.077,0.0769,0,0.007,0.0125,0.016,0.0181,0.0262,0.0304,0.0363,0.0489,0.0567,0.0688,0.0754,0.0823,0.0862,0.0867,0.0872,0.0843,0.0923,0.0873,0.0843,0.0841,0.082,0.0811,0.091,0.091,0.091,0.0909,0.0909,0,0.0066,0.0095,0.0158,0.0181,0.0243,0.0311,0.0419,0.049,0.0624,0.0733,0.0799,0.0861,0.0893,0.094,0.0915,0.0925,0.0959,0.0875,0.0863,0.0845,0.0838,0.0827,0.0817,0.0912,0.0911,0.0911,0.091,0,0.0039,0.0079,0.0121,0.0203,0.0235,0.0286,0.0431,0.0521,0.0645,0.0777,0.0809,0.0918,0.0973,0.1004,0.1027,0.0989,0.0984,0.0972,0.0978,0.0962,0.0872,0.0864,0.0942,0.0942,0.0942,0.0941,0.0941,0,0.0025,0.0048,0.0121,0.0154,0.0192,0.029,0.0368,0.0509,0.0605,0.0798,0.0842,0.0953,0.1008,0.1035,0.1046,0.1034,0.1006,0.1005,0.0917,0.0899,0.088,0.0873,0.0865,0.0941,0.0941,0.094,0.094,0,-0.0002,0.0024,0.0054,0.0127,0.0194,0.0282,0.04,0.0464,0.0643,0.0751,0.0867,0.0919,0.0998,0.1011,0.1036,0.1005,0.1005,0.1,0.0999,0.0916,0.0898,0.0877,0.0871,0.0939,0.0939,0.0939,0.094,0,-0.0037,-0.003,0.002,0.0088,0.0176,0.0263,0.0329,0.0451,0.056,0.0768,0.0794,0.0906,0.0995,0.0997,0.1002,0.1001,0.0959,0.0905,0.0907,0.0909,0.0868,0.0838,0.0874,0,0,0,0,0,-0.0074,-0.0058,-0.0007,0.0066,0.0163,0.0222,0.0352,0.0427,0.0587,0.0653,0.0735,0.08,0.0864,0.0902,0.0888,0.0952,0.0939,0.0931,0.0871,0.0933,0.0934,0.0887,0,0,0,0,0,0,-0.0102,-0.0077,-0.0034,0.0057,0.0114,0.0218,0.0299,0.0394,0.0443,0.0594,0.0623,0.074,0.0789,0.0857,0.0866,0.0879,0.0824,0.0996,0.0994,0.0932,0.0933,0.0934,0.0886,0,0,0,0,0]},{"header":{"parameterUnit":"m.s-1","parameterCategory":2,"la1":30.2991,"la2":30.254,"lo1":-89.0895,"lo2":-89.0444,"dy":0.0017,"dx":0.0017,"nx":28,"ny":28,"refTime":"2025-05-27T21:00:00:Z","depth":"4","parameterNumber":3,"parameterNumberName":"V-component_of_CURRENTS"},"data":[0,0,0,0,0,0,0,0,0,0,0,0,0,0,0,0,0,0,0,0,0,0,0,0,0,0,0,0,0,0,0,0,0,0,0,0,0,0,0,0,0,0,0,0,0,0,0,0,0,0,0,0,0,0,0,0,0,0,0.0209,0.0209,0,0.0215,0.0215,0.0214,0.0167,0.0166,0.0165,0.0164,0.0065,0.0064,0.0062,0,0,0,0,0,0,0,0,0,0,0,0,0,0.0118,0.012,0.0209,0.0209,0.021,0.0215,0.0215,0.0214,0.0168,0.0166,0.0165,0.0164,0.0066,0.0064,0.0062,0,0,0,0,0,0,0,0,0,0,0,0,0,0.0142,0.0121,0.0209,0.0189,0.0187,0.0215,0.0215,0.0214,0.0168,0.0166,0.0165,0.0163,0.0066,0.0064,0.0062,0.008,0,0,0.0054,0.0053,0,0,0,0,0,0,0,0,0.0141,0.0145,0.0191,0.019,0.0188,0.0191,0.0146,0.0165,0.0168,0.0173,0.0164,0.0162,0.01,0.0095,0.0098,0.0075,0.0071,0.0054,0.0053,0.0052,0.0051,0,0,0,0,0,0,0,0.0139,0.0145,0.0209,0.0192,0.019,0.0166,0.0167,0.015,0.0142,0.0172,0.0169,0.0174,0.0098,0.01,0.0095,0.0069,0.0054,0.0052,0.0051,0.005,-0.0033,-0.0034,0,0,0,0,0,0,0.0148,0.0144,0.0209,0.0209,0.0163,0.0169,0.0171,0.019,0.0144,0.0137,0.0176,0.0172,0.0105,0.0098,0.0091,0.0078,0.0052,0.0049,0.0048,-0.0032,-0.0033,-0.0034,0,0,0,0,0,0,0.0146,0.0154,0.0209,0.0177,0.0183,0.0173,0.0194,0.0191,0.018,0.0149,0.0138,0.0167,0.0104,0.0095,0.0059,0.0074,0.0048,0.0046,-0.0031,-0.0032,-0.0033,0.0071,0,0,0,0,0,0,0.0144,0.0154,0.0167,0.0179,0.0185,0.0224,0.0196,0.0192,0.0188,0.0183,0.0138,0.0128,0.0102,0.0063,0.0056,0.007,0.0044,-0.003,-0.0032,-0.0033,0.0068,0.0073,0.0077,0,0,0,0,0,0.0141,0.0173,0.0168,0.0175,0.0205,0.0225,0.0226,0.0211,0.0189,0.0193,0.0151,0.0129,0.0048,0.0061,0.0053,0.0067,-0.003,-0.0031,-0.0033,0.0066,0.0072,0.0077,0,0,0,0,0,0,0.0139,0.0172,0.0166,0.0206,0.0212,0.0218,0.0227,0.0212,0.0186,0.0174,0.013,0.0118,0.0089,0.0055,0.007,0.0032,0.0002,-0.0001,0.008,0.0085,0.009,0.0074,0.0042,0,0,0,0,0,0.0147,0.018,0.0195,0.0225,0.0232,0.0226,0.023,0.0221,0.0205,0.0192,0.016,0.0116,0.0081,0.0064,0.0029,0.002,-0.004,0.0016,0.0021,0.0025,0.0003,-0.0074,-0.0078,-0.0039,-0.0039,-0.0039,0,0,0.0155,0.0178,0.0195,0.0226,0.0231,0.026,0.0224,0.0238,0.0256,0.0185,0.0187,0.0133,0.0078,0.0063,0.0047,0.0037,-0.0013,0.0023,0.0028,0.0002,-0.0076,-0.008,-0.0083,-0.0041,-0.004,-0.004,0,0,0.02,0.0208,0.0252,0.0263,0.028,0.028,0.0283,0.0285,0.0277,0.0272,0.0217,0.0166,0.0132,0.0092,0.0068,0.0073,0.0011,0.0059,0.0081,0.0009,0.0005,0.0001,-0.0053,-0.0063,0.0067,0.0067,0.0068,0,0.0203,0.0264,0.0264,0.0306,0.0316,0.0292,0.0328,0.0332,0.0317,0.0295,0.028,0.0175,0.0147,0.0097,0.0101,0.0088,0.003,0.0078,0.0017,0.0012,0.0006,-0.005,-0.0062,0.0072,0.0072,0.0071,0.0071,0,0.0286,0.0322,0.0347,0.0394,0.0402,0.0428,0.043,0.0426,0.0403,0.0381,0.0317,0.0258,0.0175,0.0176,0.0148,0.0087,0.0055,0.0035,0.0013,0.0009,-0.005,-0.0064,0.0079,0.0077,0.0076,0.0075,0,0,0.0327,0.0393,0.0401,0.0415,0.0446,0.0453,0.0484,0.048,0.0456,0.0428,0.0372,0.0327,0.0242,0.0203,0.0146,0.0098,0.0039,0.0052,0.0046,0.0015,-0.0125,-0.0069,-0.008,0.0003,0.0001,-0.0001,-0.0139,0,0.0387,0.0466,0.0488,0.0538,0.0565,0.0547,0.0568,0.0549,0.0509,0.0448,0.0368,0.0286,0.027,0.0198,0.0153,0.0041,-0.0001,0.0077,-0.0135,-0.0141,-0.0076,-0.0095,-0.001,-0.015,-0.0153,-0.0156,-0.0157,0,0.0467,0.0498,0.0563,0.0578,0.0587,0.0611,0.0579,0.0589,0.0512,0.0462,0.036,0.0269,0.0164,0.015,-0.0017,0.0025,-0.0046,-0.0107,-0.0114,-0.0117,-0.0112,-0.0157,-0.0184,-0.0182,-0.018,-0.0179,-0.0177,0,0.0476,0.0547,0.0587,0.0599,0.0622,0.0628,0.0628,0.0581,0.0553,0.0431,0.0357,0.0226,0.0121,0.0014,-0.0091,-0.0086,-0.0261,-0.0271,-0.0279,-0.0276,-0.033,-0.0325,-0.0381,-0.038,-0.038,-0.038,-0.0379,0,0.0525,0.0552,0.059,0.0604,0.062,0.0628,0.0613,0.0583,0.0508,0.0455,0.0337,0.0249,0.0075,-0.0037,-0.0118,-0.0235,-0.0286,-0.0293,-0.0315,-0.0279,-0.0268,-0.0338,-0.0332,-0.0385,-0.0384,-0.0383,-0.0382,0,0.052,0.0564,0.0592,0.0617,0.0627,0.0623,0.0614,0.0588,0.0516,0.043,0.0376,0.0221,0.0072,-0.0056,-0.0238,-0.0274,-0.0385,-0.04,-0.0341,-0.0355,-0.0351,-0.0338,-0.0471,-0.047,-0.0469,-0.0469,-0.0468,0,0.0522,0.054,0.0579,0.0592,0.0606,0.0611,0.0617,0.0584,0.0551,0.0432,0.0384,0.0214,0.0116,-0.01,-0.0221,-0.0385,-0.038,-0.044,-0.041,-0.0356,-0.0365,-0.0352,-0.034,-0.0468,-0.0467,-0.0467,-0.0467,0,0.0484,0.0503,0.0519,0.0556,0.0576,0.0592,0.0598,0.0571,0.0529,0.0476,0.0366,0.0235,0.0079,-0.0086,-0.0205,-0.0308,-0.0414,-0.0435,-0.0438,-0.041,-0.0354,-0.036,-0.0349,-0.0465,-0.0465,-0.0466,-0.0466,0,0.043,0.0436,0.0467,0.0496,0.0534,0.0553,0.0566,0.0546,0.0513,0.0415,0.0396,0.0227,0.013,-0.0045,-0.0143,-0.0253,-0.0288,-0.0312,-0.0321,-0.0325,-0.0222,-0.0126,-0.0201,0,0,0,0,0,0.0365,0.0375,0.0404,0.0441,0.0488,0.0514,0.0542,0.0553,0.0537,0.047,0.0431,0.0304,0.0111,0.0017,-0.0088,-0.0145,-0.0312,-0.027,-0.0346,-0.0454,-0.0456,-0.0352,0,0,0,0,0,0,0.0315,0.0336,0.0378,0.0396,0.0419,0.0461,0.0485,0.0484,0.0454,0.0429,0.0327,0.0292,0.01,0.0163,-0.0092,-0.0127,-0.0183,-0.0357,-0.0359,-0.0453,-0.0455,-0.0457,-0.035,0,0,0,0,0]}]]